When you browse on this site, cookies collect data to enhance your experience and personalize the content and advertising you see.
Visit our Privacy Policy to learn more. By continuing to use the site, you agree to this use of cookies and data.
  • In Portugal
  • List of Countries
  • For 7 days
  • Water Temperature
  • Weather Map
  • Weather Widgets
  • user-avatar
    Login

    Hourly Weather Bregenz

    Today, 22 August, Thursday

    Time Temperature Precipitation Wind Pressure Humidity
    00:00 +9°C° 0 mm 1 mps 651 mmHg 93%
    01:00 +9°C° 0 mm 1 mps 651 mmHg 93%
    02:00 +9°C° 0 mm 1 mps 651 mmHg 93%
    03:00 +8°C° 0 mm 0 mps 651 mmHg 94%
    04:00 +7°C° 0 mm 0 mps 650 mmHg 94%
    05:00 +8°C° 0 mm 0 mps 651 mmHg 93%
    06:00 +9°C° 0 mm 0 mps 651 mmHg 91%
    07:00 +10°C° 0 mm 0 mps 651 mmHg 90%
    08:00 +12°C° 0 mm 1 mps 652 mmHg 85%
    09:00 +14°C° 0 mm 1 mps 652 mmHg 80%
    10:00 +15°C° 0 mm 1 mps 653 mmHg 74%
    11:00 +16°C° 0.1 mm 1 mps 653 mmHg 73%
    12:00 +17°C° 0.1 mm 2 mps 653 mmHg 71%
    13:00 +18°C° 0.1 mm 2 mps 653 mmHg 70%
    14:00 +18°C° 0.2 mm 2 mps 653 mmHg 71%
    15:00 +18°C° 0.2 mm 2 mps 653 mmHg 72%
    16:00 +18°C° 0.2 mm 2 mps 653 mmHg 74%
    17:00 +16°C° 0.1 mm 1 mps 653 mmHg 80%
    18:00 +15°C° 0.1 mm 1 mps 652 mmHg 86%
    19:00 +14°C° 0.1 mm 1 mps 652 mmHg 93%
    20:00 +13°C° 0 mm 1 mps 652 mmHg 93%
    21:00 +12°C° 0 mm 1 mps 652 mmHg 94%
    22:00 +11°C° 0 mm 1 mps 652 mmHg 95%
    23:00 +11°C° 0 mm 1 mps 652 mmHg 94%

    Tomorrow, 23 August, Friday

    Time Temperature Precipitation Wind Pressure Humidity
    00:00 +10°C° 0 mm 1 mps 651 mmHg 94%
    01:00 +10°C° 0 mm 1 mps 651 mmHg 94%
    02:00 +10°C° 0 mm 1 mps 651 mmHg 93%
    03:00 +10°C° 0 mm 1 mps 651 mmHg 93%
    04:00 +10°C° 0 mm 1 mps 651 mmHg 92%
    05:00 +10°C° 0 mm 1 mps 651 mmHg 91%
    06:00 +11°C° 0 mm 1 mps 651 mmHg 89%
    07:00 +11°C° 0 mm 0 mps 651 mmHg 88%
    08:00 +13°C° 0 mm 1 mps 652 mmHg 82%
    09:00 +15°C° 0 mm 1 mps 653 mmHg 76%
    10:00 +18°C° 0 mm 1 mps 653 mmHg 70%
    11:00 +19°C° 0 mm 1 mps 653 mmHg 69%
    12:00 +18°C° 0 mm 2 mps 653 mmHg 67%
    13:00 +19°C° 0 mm 2 mps 653 mmHg 66%
    14:00 +19°C° 0.4 mm 2 mps 653 mmHg 69%
    15:00 +19°C° 0.4 mm 2 mps 653 mmHg 72%
    16:00 +19°C° 0.4 mm 2 mps 653 mmHg 75%
    17:00 +18°C° 0.4 mm 2 mps 652 mmHg 81%
    18:00 +16°C° 0.4 mm 1 mps 652 mmHg 87%
    19:00 +15°C° 0.4 mm 1 mps 651 mmHg 93%
    20:00 +14°C° 0.1 mm 1 mps 651 mmHg 94%
    21:00 +13°C° 0.1 mm 1 mps 651 mmHg 94%
    22:00 +12°C° 0.1 mm 0 mps 651 mmHg 95%
    23:00 +12°C° 0 mm 1 mps 651 mmHg 94%

    Day after tomorrow, 24 August, Saturday

    Time Temperature Precipitation Wind Pressure Humidity
    00:00 +12°C° 0 mm 1 mps 651 mmHg 94%
    01:00 +12°C° 0 mm 1 mps 650 mmHg 93%
    02:00 +11°C° 0 mm 1 mps 650 mmHg 93%
    03:00 +11°C° 0 mm 1 mps 650 mmHg 92%
    04:00 +11°C° 0 mm 1 mps 650 mmHg 91%
    05:00 +11°C° 0 mm 1 mps 650 mmHg 90%
    06:00 +12°C° 0 mm 1 mps 650 mmHg 89%
    07:00 +13°C° 0 mm 1 mps 650 mmHg 88%
    08:00 +15°C° 0 mm 1 mps 651 mmHg 81%
    09:00 +18°C° 0 mm 1 mps 651 mmHg 73%
    10:00 +20°C° 0 mm 1 mps 652 mmHg 66%
    11:00 +21°C° 0 mm 1 mps 652 mmHg 65%
    12:00 +21°C° 0 mm 1 mps 652 mmHg 63%
    13:00 +21°C° 0 mm 2 mps 652 mmHg 62%
    14:00 +21°C° 0.6 mm 2 mps 652 mmHg 67%
    15:00 +21°C° 0.6 mm 1 mps 651 mmHg 72%
    16:00 +21°C° 0.6 mm 1 mps 651 mmHg 76%
    17:00 +19°C° 0.4 mm 1 mps 651 mmHg 82%
    18:00 +18°C° 0.4 mm 1 mps 650 mmHg 87%
    19:00 +14°C° 0.4 mm 0 mps 650 mmHg 92%
    20:00 +15°C° 0.1 mm 1 mps 650 mmHg 92%
    21:00 +14°C° 0.1 mm 1 mps 650 mmHg 92%
    22:00 +13°C° 0.1 mm 1 mps 650 mmHg 93%
    23:00 +13°C° 0 mm 1 mps 649 mmHg 92%

    25 August, Sunday

    Time Temperature Precipitation Wind Pressure Humidity
    00:00 +12°C° 0 mm 1 mps 649 mmHg 92%
    01:00 +12°C° 0 mm 1 mps 649 mmHg 91%
    02:00 +12°C° 0 mm 1 mps 649 mmHg 91%
    03:00 +11°C° 0 mm 1 mps 649 mmHg 90%
    04:00 +11°C° 0 mm 1 mps 649 mmHg 90%
    05:00 +12°C° 0 mm 1 mps 649 mmHg 89%
    06:00 +13°C° 0 mm 1 mps 649 mmHg 88%
    07:00 +13°C° 0 mm 1 mps 649 mmHg 88%
    08:00 +16°C° 0 mm 1 mps 650 mmHg 79%
    09:00 +19°C° 0 mm 1 mps 651 mmHg 71%
    10:00 +21°C° 0 mm 1 mps 652 mmHg 62%
    11:00 +22°C° 0 mm 1 mps 652 mmHg 59%
    12:00 +23°C° 0 mm 1 mps 652 mmHg 56%
    13:00 +23°C° 0 mm 2 mps 652 mmHg 53%
    14:00 +23°C° 0 mm 2 mps 651 mmHg 54%
    15:00 +23°C° 0 mm 1 mps 651 mmHg 55%
    16:00 +23°C° 0 mm 1 mps 651 mmHg 56%
    17:00 +20°C° 0 mm 1 mps 651 mmHg 63%
    18:00 +18°C° 0 mm 1 mps 650 mmHg 70%
    19:00 +14°C° 0 mm 0 mps 650 mmHg 78%
    20:00 +13°C° 0 mm 0 mps 650 mmHg 79%
    21:00 +14°C° 0 mm 1 mps 650 mmHg 80%
    22:00 +13°C° 0 mm 1 mps 650 mmHg 80%
    23:00 +12°C° 0 mm 1 mps 650 mmHg 81%

    26 August, Monday

    Time Temperature Precipitation Wind Pressure Humidity
    00:00 +12°C° 0 mm 1 mps 650 mmHg 82%
    01:00 +12°C° 0 mm 1 mps 650 mmHg 82%
    02:00 +11°C° 0 mm 1 mps 649 mmHg 83%
    03:00 +11°C° 0 mm 1 mps 649 mmHg 84%
    04:00 +11°C° 0 mm 1 mps 649 mmHg 85%
    05:00 +12°C° 0 mm 1 mps 650 mmHg 83%
    06:00 +13°C° 0 mm 1 mps 650 mmHg 82%
    07:00 +14°C° 0 mm 1 mps 651 mmHg 81%
    08:00 +16°C° 0 mm 1 mps 651 mmHg 74%
    09:00 +19°C° 0 mm 1 mps 652 mmHg 66%
    10:00 +21°C° 0 mm 1 mps 653 mmHg 59%
    11:00 +22°C° 0 mm 1 mps 653 mmHg 56%
    12:00 +22°C° 0 mm 1 mps 653 mmHg 53%
    13:00 +23°C° 0 mm 2 mps 653 mmHg 51%
    14:00 +23°C° 0 mm 2 mps 653 mmHg 53%
    15:00 +23°C° 0 mm 2 mps 653 mmHg 55%
    16:00 +23°C° 0 mm 2 mps 653 mmHg 57%
    17:00 +20°C° 0 mm 2 mps 652 mmHg 67%
    18:00 +19°C° 0 mm 1 mps 651 mmHg 78%
    19:00 +16°C° 0 mm 1 mps 651 mmHg 89%
    20:00 +15°C° 0 mm 1 mps 651 mmHg 90%
    21:00 +14°C° 0 mm 1 mps 651 mmHg 91%
    22:00 +14°C° 0 mm 1 mps 651 mmHg 92%
    23:00 +13°C° 0 mm 1 mps 651 mmHg 91%

    27 August, Tuesday

    Time Temperature Precipitation Wind Pressure Humidity
    00:00 +13°C° 0 mm 1 mps 650 mmHg 91%
    01:00 +13°C° 0 mm 1 mps 650 mmHg 90%
    02:00 +12°C° 0 mm 1 mps 650 mmHg 89%
    03:00 +12°C° 0 mm 1 mps 649 mmHg 88%
    04:00 +12°C° 0 mm 1 mps 649 mmHg 87%
    05:00 +12°C° 0 mm 1 mps 649 mmHg 86%
    06:00 +13°C° 0 mm 1 mps 650 mmHg 84%
    07:00 +14°C° 0 mm 1 mps 650 mmHg 82%
    08:00 +16°C° 0 mm 1 mps 651 mmHg 76%
    09:00 +19°C° 0 mm 1 mps 651 mmHg 69%
    10:00 +21°C° 0 mm 1 mps 652 mmHg 62%
    11:00 +22°C° 0 mm 1 mps 651 mmHg 60%
    12:00 +23°C° 0 mm 1 mps 651 mmHg 59%
    13:00 +24°C° 0 mm 1 mps 651 mmHg 57%
    14:00 +23°C° 0.6 mm 1 mps 651 mmHg 63%
    15:00 +23°C° 0.6 mm 1 mps 650 mmHg 70%
    16:00 +22°C° 0.6 mm 1 mps 650 mmHg 76%
    17:00 +21°C° 0.6 mm 1 mps 649 mmHg 80%
    18:00 +19°C° 0.6 mm 1 mps 649 mmHg 84%
    19:00 +18°C° 0.6 mm 1 mps 648 mmHg 88%
    20:00 +16°C° 0.2 mm 1 mps 648 mmHg 89%
    21:00 +15°C° 0.2 mm 2 mps 648 mmHg 89%
    22:00 +14°C° 0.2 mm 2 mps 648 mmHg 90%
    23:00 +14°C° 0 mm 2 mps 648 mmHg 89%
    Show more